Simultaneous Nadir Overpasses (SNOs) Predictions

Prediction of SNOs between GOES-17 and METOP-C Satellite Orbit:

Table of predicted SNOs for the next 14.0 days since TLE Epoch: 4/24/2020
Index Date Time (GOES-17) GOES-17 Lat,Lon METOP-C Lat,Lon Distance(km) Time Diff (sec)
1 04/26/2020 06:52:29 -0.04,-137.18 -0.63,-139.81 299.29 80
2 04/27/2020 06:29:10 -0.03,-137.17 0.52,-134.82 268.75 80
3 04/28/2020 18:48:02 0.03,-137.16 0.50,-139.38 251.82 80
4 04/29/2020 18:30:02 0.02,-137.15 -0.60,-134.38 315.76 80
5 05/01/2020 06:49:03 -0.02,-137.12 -0.44,-138.98 211.87 80
6 05/02/2020 06:25:44 -0.02,-137.10 0.66,-133.98 355.32 80
7 05/03/2020 18:44:35 0.02,-137.08 0.36,-138.54 166.28 80
8 05/04/2020 18:26:37 0.01,-137.07 -0.80,-133.56 400.78 80
9 05/06/2020 06:45:38 -0.01,-137.03 -0.24,-138.15 127.66 80
10 05/07/2020 06:22:19 -0.01,-137.00 0.86,-133.16 438.96 80




NCC Satellite Simultaneous Nadir Overpasses (SNOs) Prediction Service
